星链-32629 (STARLINK-32629)

导读

STARLINK-32629是美国SpaceX公司星链星座的第二代卫星,于2024年11月30日由猎鹰9火箭发射入轨。作为全球低轨互联网星座的组成部分,它运行在近地轨道,配备增强型相控阵天线与激光星间链路,可为全球用户提供高速低延迟的宽带互联网服务,助力星链实现全球覆盖,支撑民用通信、移动互联等多场景应用,是SpaceX加速第二代星链部署的典型节点卫星。

Basic Information
目录编号:
62150
目录名称:
STARLINK-32629
国际标识:
2024-224M
轨道中心:
EARTH
卫星名称:
星链-32629
卫星全名:
星链-32629 (STARLINK-32629)
卫星状态:
在轨 (已飞行643 天)
发射日期:
2024-11-30 UTC
国别 :
美国 (US)
星等 :
--
Orbit Information
数据来源 国际轨道数据
星历时间: 2026-09-04T07:48:52+0800
13小时前
查看轨道信息
半长轴: 6861.173km
偏心率: 0.0000954
轨道倾角: 42.999°
近地点辐角 246.171°
升交点赤经 230.748°
平近点角 113.904°
近地点: 482.381km
远地点: 483.691km
周期: 94.266分钟
每日圈数: 15.275847
Detailed Information
固有亮度:
5
最大亮度:
2.5
卫星平台:
Starlink V1.0
覆盖范围:
全球
运营商:
太空探索技术公司
运营商所在国:
美国
制造商(研发单位):
太空探索技术公司
制造商所在国:
美国
使用方式:
暂无
Satellite Introduction
Starlink 计划是 SpaceX 推出的全球卫星互联网项目,通过发射低轨道卫星,为全球尤其是偏远地区提供高速、低延迟的互联网服务。自 2019 年起,Starlink 已部署数千颗卫星,旨在缩小全球数字鸿沟,推动互联网普及。该项目还为军事、航空等行业提供通信支持,带来广泛经济效益。
2D Orbit Map
3D Orbit Map
Orbit Altitude Analysis Chart
Orbit Inclination Analysis Chart
Orbit Comprehensive Analysis Chart
View Comprehensive Chart
Conjunction Data List
Event ID Objects TCA Miss Dist (km) Collision Risk Probability Collision Risk Index (CRI) Action
CDM_260904-235205-930306-215021
2026-09-04T
23:52:01+0000
0.492 km
远距离
1.270827E-4 高风险 0.77
CDM_260905-065205-637706-215021
2026-09-05T
06:52:14+0000
0.530 km
远距离
7.614594E-5 中风险 0.73
CDM_260905-025605-637706-215021
2026-09-05T
02:56:51+0000
0.711 km
远距离
3.189877E-5 中风险 0.65
CDM_260905-082905-930306-215021
2026-09-05T
08:29:52+0000
0.998 km
远距离
1.479306E-5 中风险 0.58
CDM_260905-012205-637706-215021
2026-09-05T
01:22:41+0000
1.352 km
极远距离
3.678915E-6 低风险 0.46
CDM_260904-221705-930306-215021
2026-09-04T
22:17:52+0000
1.644 km
极远距离
2.825515E-6 低风险 0.44
CDM_260905-100405-930306-215021
2026-09-05T
10:04:01+0000
1.782 km
极远距离
2.243444E-6 低风险 0.42
CDM_260905-082605-637706-215021
2026-09-05T
08:26:23+0000
1.912 km
极远距离
1.351146E-6 低风险 0.38
CDM_260905-012605-930306-215021
2026-09-05T
01:26:10+0000
2.606 km
极远距离
9.890971E-7 极低风险 0.35
CDM_260905-051805-637706-215021
2026-09-05T
05:18:05+0000
2.466 km
极远距离
8.035878E-7 极低风险 0.33